Showing default

GLOBALSTAR M038, 25624

Orbit data source: Space-Track

GLOBALSTAR M038, 25624 is a payload satellite owned by Globalstar (US) in LEO that was launched on Tue, 09 Feb 1999 UTC via a SOYUZ-U-PVB launch vehicle from the Tyuratam Missile And Space Complex (TTMTR). Payload-class satellites include a variety of spacecraft equipped with specific instruments for various scientific and technological missions. These include communications satellites like Starlink; space stations such as the ISS; scientific satellites like the Hubble; Earth observation satellites from companies like Planet Labs, Umbra, and HawkEye 360; GPS; miniature CubeSats for education and research; and military/defense satellites.

Loading next visibility...
Identifier
25624, 1999-004D
Orbit
LEO
Country
Flag of UnknownUnknown / GLOB
Related business
Manufacturer
SS/Loral
Mission
Non-operational Commercial Communications
Bus & Motor
LS-400, LS-400 AOCS
Mass
450 kg wet, 380 kg dry
Launch date (UTC)
1999-02-09 (27 years ago)
Launch vehicle
SOYUZ-U-PVB
Launch site
Tyuratam Missile And Space Complex (TTMTR)
Object type
Payload
Rocket body
Debris
Shape & HBR
Box + 2 Pan, 6.0 m
Radar Cross Section
5.587 m², Large (>1 m²)

Expand to show TLE details & history
Last TLE update: 9 hours ago

TLE from 9 hours ago
0 GLOBALSTAR M038
1 25624U 99004D   25258.54247289 -.00000086  00000-0  77922-4 0  9990
2 25624  51.9967 171.3581 0001171 247.8805 284.1363 12.32532058213518
Epoch: 2025-09-15T13:01Z
TLE epoch observation values (Epoch: 2025-09-15T13:01:09.657Z)
Latitude
6.25965°
Longitude
156.42949°
Altitude
1,538.273 km
Speed
7.099 km/s
True Right ascension
23h 05m 51s
True Declination
6° 13' 34"
Sunlit
Object was in full shadow at epoch
Visualization orbit readout
Latitude
Unknown
Longitude
Unknown
Altitude
Unknown
Speed
Unknown
Apparent Right ascension
Unknown
Apparent Declination
Unknown
Sunlit
N/A
Visualization observer readout
Local Sidereal Time
14:52:06
Azimuth
Unknown
Elevation
Unknown
Doppler factor
Unknown
Orbital elements
Apogee altitude
1,539.734 km
Perigee altitude
1,537.88 km
Semi-major axis
7,916.944 km
Eccentricity
0.00012
Inclination
51.9967°
RAAN
171.3581°
Arg. of periapsis
247.8805°
True anomaly
284.12329°
Mean anomaly
284.1363°
Eccentric anomaly
284.12979°
Mean motion
3.08111 °/min
Orbital period
116.84 mins
BSTAR
0.000077922
Loading maneuver chart data...
Computing Atmospheric mass density...
Loading historical data...
Loading historical data...
Loading historical data...
Loading historical data...
Loading historical data...
Loading historical data...
Loading historical data...
Other satellites on launch #4 in the year 1999 (1999-02-09 UTC)

Documentation

Showing up to 5 results
|